ROMMA est une association bénévole à but non lucratif. Votre soutien est indispensable : ADHERER à ROMMA ou FAIRE un DON

Granges-lès-Beaumont - (26, Drôme)

Drôme des Collines (155 m)   Longitude: 04°58'E   Latitude: 45°03'N Station partenaire n°123
 

Détail journalier du     <<     >>

Température Precipitation Humidité Pression Vent Dir Rafale Dir. rafale Ensol.
Heure (°C) (mm) (%) (hPa) (km/h) (km/h) (min)
01:00 4.509310102NE11ENE0
02:00 3.909410101ENE8ENE0
03:00 4.309510091ENE6ENE0
04:00 4.2094100906ENE0
05:00 3.7094100905ENE0
06:00 4.009410096ENE16ENE0
07:00 3.309310083ENE16ENE0
08:00 2.609310082ENE10E0
09:00 2.2094100906ENE0
10:00 3.7096100903ONO0
11:00 5.309210091---6ENE0
12:00 6.3090100806ENE0
13:00 7.30911008010E0
14:00 8.60.28910073NE15E0
15:00 9.308710075E15E30
16:00 9.908710075E13ENE10
17:00 9.109010075ENE13E0
18:00 8.509210071---6ENE0
19:00 8.2093100705ENE0
20:00 8.119510081---8SE0
21:00 8.20.69510082NE11E0
22:00 7.80.69510081---11ENE0
23:00 7.42.49510089ENE16ENE0
minuit 7.82.69610094ENE11NE0

Graphique du 21-11-2019

 

Serveur OMMA